CAPE
460 644 722 776 816 1034 1078 1084 1139 1293 1305 1228 1205 1304 1451 1729 1863 1627 1534 1490 1704 1900 1777 1439 1522 1460 1548 1879 2010 2006 1900 1136 955 371 0 0 1 0 226 0 4 0 84
596 728 766 834 820 880 972 1078 1084 1260 1306 1462 1474 1504 1547 1618 1831 1840 1707 1572 1704 2012 1851 1813 1717 1870 2053 1933 2136 1937 1278 1069 708 52 0 0 0 102 0 36 0 122 0
527 705 743 792 879 944 1005 986 1100 1182 1257 1384 1555 1594 1661 1670 1587 1535 1618 1839 1976 2240 2279 2078 2064 2030 1609 966 773 810 465 35 103 150 7 0 0 0 0 0 1 0 0
567 668 592 639 742 925 1070 1095 1117 1202 1303 1407 1480 1455 1471 1628 1517 1548 1611 1910 2111 2290 2297 2111 1854 1073 450 143 167 364 155 93 0 1 93 59 17 1 0 0 0 2 0
326 338 390 477 650 742 940 1085 1231 1263 1347 1410 1409 1535 1577 1692 1774 1903 1751 1999 1683 1494 1274 824 262 177 116 75 5 0 7 35 14 3 10 13 15 33 27 1 0 0 0
231 258 256 341 508 704 848 1061 1200 1141 1314 1361 1399 1502 1577 1669 1772 1916 1889 1918 1439 1204 895 345 191 142 33 0 0 0 4 38 38 28 27 15 8 1 23 15 0 0 0
173 187 197 222 373 549 754 1026 1153 1079 1298 1386 1352 1450 1552 1662 1775 2001 2106 1996 1452 1002 804 189 25 0 0 0 0 10 36 68 48 48 3 7 3 6 7 3 0 0 0
84 156 177 218 291 437 663 884 1071 1002 1219 1193 1282 1452 1456 1544 1829 2019 2073 2143 1784 1561 324 95 2 0 0 0 0 48 66 81 25 5 1 0 0 0 0 0 0 0 0
65 82 156 195 259 389 572 705 882 957 1024 1008 1218 1490 1523 1695 1930 2067 1996 1935 1331 434 177 13 0 0 0 2 26 58 76 9 4 0 0 0 0 0 0 0 0 0 4
30 56 142 167 222 364 548 765 848 941 1009 911 1218 1369 1552 1756 2117 2207 1469 1294 421 87 20 0 0 1 0 47 59 31 4 0 2 0 0 0 0 0 0 0 0 0 1
0 34 120 159 185 273 491 669 876 1057 1191 1221 1066 1626 1822 1995 2266 1644 1430 641 66 0 0 0 0 0 0 59 2 0 0 0 0 0 0 0 0 0 0 0 0 0 3
0 48 115 152 199 226 326 636 871 1047 1289 1515 1533 1658 1929 2168 2132 1246 1065 264 10 7 10 0 0 0 56 13 0 0 0 0 0 0 0 0 0 0 0 0 0 0 0
7 70 127 192 214 262 403 601 864 1062 1427 1631 1744 1923 2162 1768 1585 1505 920 259 72 0 0 0 0 0 122 0 0 0 0 0 0 0 0 0 0 0 0 2 0 3 12
35 90 220 341 363 443 505 671 903 1254 1628 1887 1867 2093 2146 1845 1704 1385 606 257 22 0 0 0 0 93 39 0 0 0 0 0 0 0 0 0 0 2 3 10 3 10 11
46 73 122 413 566 721 828 951 1130 1441 1835 2007 2148 2392 2183 1901 1714 1042 514 369 122 18 0 0 67 51 0 0 0 10 0 0 0 0 0 0 0 1 4 5 4 5 4
14 23 75 227 365 671 872 1089 1431 1786 2132 2144 2123 2260 2197 1689 1433 914 537 474 280 4 0 3 14 5 0 0 0 0 0 0 0 0 0 0 0 0 1 3 0 4 3
0 0 0 56 315 662 1022 1288 1655 1937 1976 2142 2162 2061 1615 1353 1136 833 403 196 0 0 0 2 33 18 5 0 0 0 0 0 0 0 0 1 0 2 3 0 1 0 1
18 8 103 298 558 902 1260 1656 1726 1703 1931 1961 1802 1612 1400 1224 798 320 69 0 0 0 0 27 117 28 14 0 0 0 0 0 0 0 0 1 0 1 0 0 0 0 0
392 381 482 600 655 756 1231 1411 1439 1633 1666 1622 1640 1539 1362 1120 569 238 30 0 0 0 0 210 135 13 28 0 0 0 0 0 0 0 0 0 0 0 0 0 1 0 0
521 655 692 683 739 858 1132 1041 1025 1124 1109 1161 1278 1181 1095 926 685 345 118 0 0 0 101 75 6 5 113 0 0 0 0 0 0 0 0 0 0 0 0 0 0 0 0
743 876 919 946 864 801 621 354 446 570 829 863 894 904 960 998 680 343 56 0 0 22 120 11 28 57 29 0 0 0 0 0 0 0 0 0 0 0 0 0 0 0 0
654 602 314 175 175 159 71 7 32 480 719 786 815 979 991 738 498 235 8 0 0 35 105 136 19 6 0 0 0 0 0 0 0 0 0 0 0 0 0 0 0 0 0
423 583 518 624 837 1002 1107 754 543 539 479 466 740 830 917 648 341 142 5 0 1 55 194 161 144 58 0 0 0 0 0 0 0 0 0 0 0 0 0 0 0 0 0
0 0 0 0 0 0 4 386 565 554 676 835 681 655 693 379 67 4 11 16 41 122 171 64 34 30 0 0 0 0 0 0 0 0 0 0 0 0 0 0 0 0 0
0 0 0 0 0 0 0 0 123 460 796 783 585 416 93 22 2 0 0 33 46 47 35 2 27 1 0 0 0 0 0 0 0 0 0 0 0 0 0 0 0 0 0
0 0 0 0 0 0 0 0 0 8 365 648 339 55 1 0 0 0 0 0 0 0 0 0 2 0 0 0 0 0 0 0 0 0 0 0 0 0 0 0 0 0 0
CIN
-180 -178 -178 -167 -155 -127 -120 -122 -107 -89 -82 -94 -85 -69 -63 -35 -33 -50 -56 -52 -36 -35 -48 -51 -44 -56 -32 -22 -18 -3 -0 -3 -18 -115 -0 -0 -80 -0 -71 -1 -168 -0 -96
-204 -194 -195 -174 -175 -150 -138 -125 -118 -92 -87 -63 -58 -45 -43 -34 -24 -23 -49 -72 -60 -37 -45 -41 -40 -40 -24 -25 -5 -0 -6 -12 -35 -315 -0 -0 -0 -93 -0 -124 -0 -105 -0
-238 -220 -224 -229 -191 -180 -167 -162 -138 -119 -114 -90 -61 -52 -42 -55 -59 -71 -71 -50 -38 -31 -35 -41 -42 -37 -46 -74 -102 -90 -133 -167 -163 -132 -133 -0 -0 -0 -0 -0 -1 -0 -0
-284 -258 -260 -251 -251 -220 -192 -180 -161 -149 -128 -107 -91 -96 -88 -72 -83 -71 -58 -33 -35 -29 -37 -56 -68 -139 -184 -206 -218 -166 -174 -116 -0 -1 -114 -125 -0 -1 -0 -0 -0 -1 -0
-301 -279 -305 -307 -287 -251 -231 -217 -193 -181 -158 -158 -142 -124 -106 -81 -66 -52 -57 -38 -66 -79 -105 -165 -244 -237 -230 -258 -111 -0 -274 -227 -183 -1 -10 -0 -1 -0 -0 -0 -0 -0 -0
-332 -325 -309 -311 -309 -296 -288 -272 -257 -232 -216 -201 -181 -149 -136 -107 -81 -66 -49 -41 -84 -116 -156 -226 -260 -274 -265 -0 -0 -0 -70 -183 -154 -122 -99 -1 -0 -0 -0 -0 -0 -0 -0
-336 -360 -364 -373 -352 -347 -335 -299 -302 -275 -250 -229 -218 -199 -163 -123 -91 -48 -28 -35 -71 -119 -155 -264 -294 -0 -0 -0 -0 -133 -193 -161 -111 -78 -1 -1 -1 -1 -1 -1 -0 -0 -0
-337 -357 -335 -363 -360 -354 -360 -330 -320 -306 -297 -267 -251 -220 -204 -175 -106 -59 -49 -43 -53 -73 -227 -322 -166 -0 -0 -0 -0 -193 -139 -89 -110 -123 -0 -0 -0 -0 -0 -0 -0 -0 -0
-332 -330 -402 -362 -361 -376 -374 -350 -355 -329 -337 -295 -284 -243 -192 -169 -108 -84 -63 -44 -91 -139 -207 -290 -0 -0 -0 -354 -173 -108 -97 -129 -149 -0 -0 -0 -0 -0 -0 -0 -0 -0 -1
-347 -359 -420 -436 -376 -369 -386 -408 -376 -368 -334 -291 -290 -265 -225 -178 -92 -73 -99 -93 -204 -229 -248 -0 -0 -28 -0 -188 -115 -86 -80 -0 -167 -0 -0 -0 -0 -0 -0 -0 -0 -0 -1
-0 -362 -403 -467 -463 -403 -400 -398 -405 -394 -380 -358 -279 -284 -234 -186 -77 -119 -98 -172 -250 -0 -0 -0 -0 -0 -18 -137 -47 -0 -0 -0 -0 -0 -0 -0 -0 -0 -0 -0 -0 -1 -1
-0 -364 -425 -456 -512 -422 -405 -402 -389 -370 -407 -386 -319 -301 -236 -137 -112 -174 -167 -264 -159 -405 -417 -0 -0 -0 -171 -106 -0 -0 -0 -0 -0 -0 -0 -0 -0 -0 -0 -0 -0 -0 -0
-310 -373 -437 -443 -463 -440 -422 -412 -396 -400 -401 -380 -336 -276 -209 -205 -146 -151 -186 -251 -255 -0 -0 -0 -0 -0 -64 -0 -0 -0 -0 -0 -0 -0 -0 -0 -0 -0 -0 -0 -0 -0 -0
-274 -324 -381 -391 -438 -446 -421 -429 -429 -419 -389 -359 -309 -242 -220 -227 -201 -197 -263 -282 -175 -0 -0 -0 -0 -80 -56 -0 -0 -81 -0 -0 -0 -0 -0 -0 -0 -0 -0 -0 -0 -0 -0
-238 -233 -268 -332 -414 -447 -488 -506 -456 -416 -388 -338 -273 -211 -213 -218 -191 -242 -304 -283 -301 -136 -0 -0 -102 -41 -0 -0 -0 -151 -148 -0 -0 -0 -0 -0 -0 -0 -0 -0 -0 -0 -0
-148 -258 -327 -376 -375 -418 -431 -429 -412 -391 -360 -322 -288 -239 -210 -253 -252 -263 -275 -230 -217 -78 -0 -46 -115 -58 -0 -0 -0 -0 -0 -0 -0 -0 -0 -0 -0 -0 -0 -0 -0 -0 -0
-0 -0 -0 -322 -350 -381 -400 -355 -358 -405 -372 -323 -292 -261 -282 -278 -263 -251 -271 -279 -0 -0 -0 -40 -53 -43 -108 -0 -0 -0 -0 -0 -0 -0 -0 -1 -0 -0 -0 -0 -0 -0 -0
-165 -255 -318 -362 -403 -418 -407 -385 -393 -397 -341 -323 -307 -278 -257 -244 -268 -312 -363 -0 -0 -0 -0 -93 -20 -48 -52 -0 -0 -0 -0 -0 -0 -0 -0 -1 -0 -0 -0 -0 -0 -0 -0
-362 -323 -368 -382 -453 -419 -428 -402 -358 -342 -322 -298 -271 -253 -222 -211 -288 -318 -375 -0 -0 -0 -0 -23 -31 -54 -55 -0 -0 -0 -0 -0 -0 -0 -0 -0 -0 -0 -0 -0 -0 -0 -0
-459 -432 -506 -505 -483 -509 -450 -340 -337 -329 -287 -281 -289 -286 -240 -191 -186 -193 -241 -0 -0 -0 -59 -51 -68 -82 -47 -0 -0 -0 -0 -0 -0 -0 -0 -0 -0 -0 -0 -0 -0 -0 -0
-587 -576 -519 -453 -490 -500 -423 -401 -399 -355 -350 -355 -326 -281 -224 -132 -160 -196 -267 -0 -0 -132 -39 -42 -100 -83 -71 -0 -0 -0 -0 -0 -0 -0 -0 -0 -0 -0 -0 -0 -0 -0 -0
-637 -605 -599 -607 -605 -535 -488 -486 -422 -403 -338 -294 -290 -248 -178 -153 -162 -194 -302 -0 -0 -91 -38 -26 -59 -103 -0 -0 -0 -0 -0 -0 -0 -0 -0 -0 -0 -0 -0 -0 -0 -0 -0
-636 -541 -490 -448 -416 -358 -301 -287 -386 -422 -443 -384 -249 -219 -115 -154 -189 -179 -240 -0 -90 -61 -26 -16 -23 -33 -0 -0 -0 -0 -0 -0 -0 -0 -0 -0 -0 -0 -0 -0 -0 -0 -0
-0 -0 -0 -0 -0 -0 -387 -390 -360 -386 -351 -306 -309 -262 -120 -156 -226 -231 -158 -97 -73 -44 -17 -36 -21 -41 -0 -0 -0 -0 -0 -0 -0 -0 -0 -0 -0 -0 -0 -0 -0 -0 -0
-0 -0 -0 -0 -0 -0 -0 -0 -500 -379 -308 -280 -292 -261 -279 -210 -124 -0 -0 -44 -32 -16 -35 -33 -44 -8 -0 -0 -0 -0 -0 -0 -0 -0 -0 -0 -0 -0 -0 -0 -0 -0 -0
-0 -0 -0 -0 -0 -0 -0 -0 -0 -484 -349 -232 -242 -295 -88 -0 -0 -0 -0 -0 -0 -0 -0 -0 -25 -0 -0 -0 -0 -0 -0 -0 -0 -0 -0 -0 -0 -0 -0 -0 -0 -0 -0
Wind_Speed
28 27 26 25 23 22 23 23 23 23 21 21 20 20 19 19 18 16 16 15 12 10 11 12 13 14 14 13 15 17 19 20 24 25 28 25 22 21 20 22 20 23 26
27 28 27 25 23 23 23 23 23 23 21 19 19 19 17 18 18 16 16 14 10 8 9 11 13 15 15 15 18 21 23 23 26 27 28 28 27 20 29 21 27 22 28
26 26 26 25 24 24 24 24 23 23 22 21 19 17 16 16 15 13 13 9 6 7 8 10 13 14 15 19 23 24 25 25 26 27 27 30 28 33 22 27 23 27 27
27 25 24 24 24 24 24 24 24 23 22 21 20 19 18 16 13 8 6 6 7 7 9 9 11 14 18 21 23 23 26 25 28 27 24 24 27 31 33 26 32 28 32
27 26 24 22 23 25 23 23 23 22 22 20 20 18 18 15 10 5 4 4 8 11 11 13 16 16 17 20 22 24 25 25 26 27 28 28 28 26 29 36 37 35 36
26 27 25 22 23 24 23 22 20 20 19 18 17 15 14 11 5 3 1 5 9 12 13 16 17 16 18 21 22 23 23 24 24 25 26 28 31 33 34 38 39 43 41
25 25 25 23 24 24 23 21 19 19 16 16 16 14 13 11 7 4 2 5 10 11 11 15 16 14 18 20 20 20 22 23 24 26 27 28 30 30 33 35 40 44 47
25 25 27 25 24 23 21 20 19 16 15 16 15 11 12 10 7 6 4 9 11 15 15 13 10 12 17 19 19 21 23 23 24 26 26 29 30 31 33 35 37 48 47
18 27 26 27 24 23 23 21 18 16 15 16 14 10 10 9 7 6 7 6 15 22 10 5 10 14 18 19 20 21 22 23 23 25 28 31 32 32 32 33 34 43 56
13 25 23 22 24 25 23 21 20 18 16 16 11 11 10 8 6 5 6 4 8 22 8 6 9 15 17 19 19 19 19 22 22 26 30 33 33 32 32 31 33 37 46
8 20 17 17 21 21 21 21 20 18 16 15 15 8 8 6 5 4 4 4 4 4 8 7 9 16 17 17 17 18 19 20 23 27 31 33 34 33 34 34 37 42 49
3 4 7 6 9 16 18 18 18 18 17 12 11 11 8 6 6 6 4 3 7 8 8 8 11 15 16 15 15 16 16 20 25 27 31 34 35 34 33 35 40 45 46
5 1 3 7 8 10 11 12 12 13 9 8 8 9 10 9 10 8 6 4 5 5 8 8 12 13 13 13 12 13 16 19 24 28 32 35 37 36 34 38 42 43 46
12 6 3 4 3 6 7 7 6 4 3 3 4 6 7 8 9 8 7 5 3 6 7 8 10 11 11 11 11 13 14 21 27 31 33 35 36 34 37 40 44 48 55
10 7 6 3 3 2 2 3 1 3 3 2 2 3 2 4 5 6 5 4 3 5 7 8 9 9 9 10 12 13 17 23 29 32 35 35 33 31 33 39 46 50 51
12 11 8 4 4 3 3 2 2 3 3 3 4 3 2 3 4 4 4 3 4 5 6 7 8 9 9 10 11 14 21 26 29 34 36 34 32 34 36 38 40 43 43
11 10 8 6 5 4 3 2 3 4 5 5 6 6 6 5 4 4 4 4 4 5 7 8 8 8 10 11 13 17 22 27 31 35 34 34 33 36 39 43 44 52 53
11 10 8 7 4 2 1 2 3 5 7 9 10 11 8 7 5 5 5 4 6 7 7 8 8 10 12 12 14 18 23 27 31 33 31 32 34 36 42 45 47 57 52
15 13 10 7 5 3 2 3 5 8 10 12 13 14 12 9 6 5 5 7 8 8 8 9 9 11 13 14 16 20 24 29 32 30 29 30 33 38 41 43 47 54 41
9 7 6 5 4 4 3 5 8 9 12 14 16 15 13 10 6 5 7 8 8 8 9 10 11 13 14 15 18 22 25 29 30 30 29 28 33 35 38 40 45 49 48
6 4 3 4 3 3 4 8 11 13 16 17 18 17 14 9 6 7 9 9 9 9 10 11 13 14 16 17 20 22 24 27 30 29 29 29 32 34 35 38 43 40 36
4 4 3 2 3 5 6 8 12 15 16 17 18 22 13 7 8 9 10 9 8 9 12 13 14 15 16 19 20 21 23 24 27 28 26 27 31 32 33 36 41 38 39
0 1 2 5 9 12 13 14 15 14 16 17 22 12 9 8 9 9 10 10 9 12 12 13 14 15 16 17 19 20 21 25 26 26 25 26 28 30 30 35 37 37 34
2 2 3 6 9 12 16 19 19 16 19 22 17 15 11 11 11 11 11 9 10 11 10 13 14 15 16 16 16 19 22 25 27 26 25 26 26 29 30 31 32 28 34
4 5 7 9 12 15 18 20 20 21 20 20 18 16 13 12 11 14 13 10 12 11 11 13 13 14 13 14 17 20 24 25 26 24 25 28 30 31 32 31 23 20 20
5 7 9 11 13 16 19 22 23 23 22 22 20 15 13 10 8 10 11 15 13 13 13 13 13 13 11 13 16 20 23 25 25 25 27 28 29 30 30 30 10 17 19
Wind_Direction
174 173 171 167 161 161 161 161 163 163 159 162 164 170 172 177 176 163 166 167 146 110 84 71 58 54 55 49 39 31 24 21 15 12 4 7 10 3 10 356 352 341 331
175 178 177 171 167 166 167 165 168 166 162 160 164 166 161 171 174 170 174 168 145 110 79 52 41 39 38 33 28 20 16 14 10 6 3 4 5 15 351 4 344 349 332
177 176 175 174 172 173 171 170 170 170 169 167 162 160 160 165 161 158 162 142 94 62 50 39 34 30 29 20 13 10 10 9 7 5 4 357 354 347 4 351 355 342 336
182 177 174 175 175 176 174 176 174 174 174 169 168 168 168 168 158 125 85 57 37 36 26 29 26 23 17 10 9 9 5 6 2 2 6 2 355 348 341 348 337 339 331
184 182 178 174 174 179 176 176 175 176 175 172 174 173 179 173 160 110 82 35 5 1 5 5 2 4 6 5 4 2 3 2 0 359 357 356 354 351 344 336 332 330 323
187 187 184 179 179 179 178 177 175 177 176 176 178 180 180 177 165 157 4 355 348 347 350 350 354 0 357 356 357 359 0 359 359 358 355 353 348 344 339 333 331 321 320
190 188 185 182 182 181 180 177 178 180 178 181 186 190 194 196 208 217 290 330 335 337 341 342 343 351 351 351 355 357 356 355 354 353 352 351 348 346 341 336 330 323 311
194 193 191 188 186 185 183 183 182 185 187 188 193 198 203 210 223 237 265 315 321 324 326 331 341 343 347 350 352 351 351 351 352 351 351 348 347 345 341 336 334 321 321
190 193 192 191 190 188 190 189 190 190 192 195 201 216 215 225 243 257 300 320 325 324 245 289 339 342 345 346 348 348 349 352 352 351 349 347 345 343 341 339 337 328 313
187 189 188 190 192 194 194 193 195 198 200 204 210 216 220 231 248 274 310 314 343 317 296 304 332 342 343 343 347 348 352 351 351 348 347 346 345 343 341 340 338 334 326
170 178 180 182 188 192 194 197 197 198 202 204 210 230 227 256 241 285 296 308 318 323 296 319 333 339 340 343 346 347 350 351 349 348 348 347 345 343 340 338 336 331 327
330 207 186 200 184 184 191 196 197 200 206 215 223 232 249 257 246 250 222 282 287 322 322 327 332 338 341 346 346 347 352 350 347 349 349 347 344 343 343 341 337 332 332
317 217 225 174 174 177 179 186 192 195 203 216 227 235 241 234 271 243 223 261 309 309 324 329 335 339 343 348 352 354 352 350 349 349 348 346 344 342 342 341 338 337 335
286 278 259 229 200 164 164 165 177 199 212 236 248 241 237 246 243 234 236 248 280 321 332 337 341 344 349 354 357 353 352 347 347 347 348 347 345 343 341 341 339 338 335
276 259 251 233 201 162 140 136 266 300 313 314 289 275 258 259 252 241 247 279 305 332 342 347 347 351 354 358 353 353 349 347 346 347 347 347 348 348 347 344 342 341 340
271 270 260 237 201 185 159 110 59 346 357 2 344 343 333 318 301 298 290 311 323 344 349 347 351 353 353 354 354 353 347 346 346 345 346 348 350 350 349 349 348 347 344
258 245 235 220 212 192 163 127 92 36 16 13 4 0 1 357 343 345 350 347 354 355 349 351 352 352 352 353 352 350 348 348 347 346 347 349 350 351 351 350 352 351 343
254 251 247 249 239 232 177 57 39 30 5 2 358 353 1 5 6 358 356 3 354 349 352 355 357 354 351 353 353 353 350 349 348 349 351 352 351 354 352 351 354 348 337
268 265 263 259 256 251 300 358 356 353 351 348 347 342 343 349 359 360 2 353 350 352 357 2 358 352 352 353 352 350 350 349 348 354 355 356 355 354 356 357 357 349 329
256 251 256 256 243 258 291 322 330 339 342 341 340 342 342 341 349 360 359 353 352 355 357 358 359 357 354 354 354 352 351 351 353 355 357 1 357 0 2 4 1 347 342
227 221 237 237 246 266 309 314 320 330 335 340 340 337 338 342 359 0 352 353 353 355 352 355 356 357 356 356 355 355 356 355 355 357 359 0 356 0 4 6 3 338 333
243 246 235 253 290 302 309 314 321 328 334 340 346 330 339 349 351 351 350 351 353 352 347 348 350 354 357 355 357 360 0 1 0 1 3 3 0 1 5 5 357 342 351
237 303 289 305 303 304 308 304 312 319 323 334 337 348 342 343 345 343 345 348 350 341 343 348 349 351 356 358 0 4 6 5 4 6 8 5 5 4 9 355 347 352 348
3 12 351 325 318 318 315 315 322 323 327 333 339 339 335 335 335 338 341 344 344 340 345 350 348 351 355 359 8 9 7 5 3 7 12 12 15 13 4 11 342 339 358
11 2 336 328 320 322 323 321 322 326 330 329 332 333 335 332 333 336 339 341 344 343 343 347 350 351 360 11 14 8 2 6 7 13 13 9 7 10 358 7 45 359 330
347 340 345 338 336 330 327 326 328 327 334 328 329 332 331 338 341 341 342 343 346 343 341 347 354 7 30 30 24 16 8 7 11 14 8 8 11 3 353 346 63 59 323